DW4764 Weather Reports


Display with metric or nautical units.
time (UTC)temp
F
wind
direction
speed
MPH
gust
MPH
rain 1hr
in
rain 24hr
in
rain mn
in
humidity
%
barometer
mb
20260505124522 35 354 3.0 7.0 0.01 0.07 0.03 94 1005.2
20260505123015 36 322 2.0 8.0 0.01 0.07 0.03 94 1004.8
20260505121528 37 4 4.0 9.0 0.01 0.07 0.03 94 1004.5
20260505120008 38 71 3.0 7.0 0.00 0.06 0.02 93 1004.7
20260505114505 39 350 0.0 3.0 0.00 0.06 0.02 90 1004.4
20260505113003 39 288 0.0 4.0 0.00 0.06 0.02 89 1004.2
20260505111503 40 276 3.0 7.0 0.00 0.06 0.02 89 1004.0
20260505101600 40 176 5.0 10.0 0.00 0.06 0.02 92 1003.3
20260505100055 40 210 5.0 11.0 0.00 0.06 0.02 91 1003.1
20260505094606 40 213 3.0 6.0 0.00 0.06 0.02 92 1003.1
20260505093055 40 195 2.0 6.0 0.00 0.06 0.02 92 1003.2
20260505091547 40 200 4.0 7.0 0.00 0.06 0.02 91 1003.4
20260505090047 40 203 2.0 5.0 0.00 0.06 0.02 94 1003.3
20260505084551 40 207 2.0 4.0 0.00 0.06 0.02 94 1003.7
20260505083048 40 191 0.0 2.0 0.00 0.06 0.02 93 1004.0
20260505081535 40 91 0.0 4.0 0.00 0.06 0.02 93 1004.3
20260505080044 41 311 0.0 1.0 0.00 0.06 0.02 93 1004.5
20260505074531 41 270 0.0 1.0 0.00 0.06 0.02 93 1004.6
20260505073035 41 342 1.0 3.0 0.00 0.06 0.02 93 1004.7
20260505071542 41 335 0.0 1.0 0.01 0.06 0.02 93 1004.7
20260505070027 41 69 2.0 4.0 0.02 0.06 0.02 92 1004.7
20260505064533 41 359 0.0 1.0 0.02 0.06 0.02 93 1004.9
20260505063024 41 350 0.0 1.0 0.02 0.06 0.02 92 1004.9
20260505061509 41 354 2.0 5.0 0.01 0.05 0.01 91 1004.7
20260505060008 41 55 0.0 2.0 0.00 0.04 0.00 91 1004.9
20260505054503 41 47 3.0 5.0 0.00 0.04 0.04 90 1004.9
20260505053002 41 358 3.0 5.0 0.00 0.04 0.04 89 1004.8
20260505051501 41 19 1.0 4.0 0.00 0.04 0.04 89 1004.7
20260505041557 41 302 0.0 0.0 0.00 0.00 0.04 89 1004.2
20260505034554 42 351 2.0 10.0 0.04 0.04 0.04 85 1003.7
20260505033056 42 309 1.0 4.0 0.04 0.04 0.04 87 1004.2
20260505031558 42 347 2.0 8.0 0.04 0.04 0.04 85 1003.8
20260505030052 43 25 4.0 8.0 0.01 0.01 0.01 84 1003.6
20260505024551 44 354 1.0 6.0 0.00 0.00 0.00 79 1003.6
20260505023047 44 335 0.0 0.0 0.00 0.00 0.00 76 1003.3
20260505021543 44 30 3.0 7.0 0.00 0.00 0.00 74 1003.2
20260505020042 45 14 4.0 9.0 0.00 0.00 0.00 72 1003.3
20260505014600 45 350 4.0 8.0 0.00 0.00 0.00 71 1003.0
20260505013042 46 82 7.0 12.0 0.00 0.00 0.00 69 1002.9
20260505011546 48 24 8.0 14.0 0.00 0.00 0.00 60 1002.9
20260505010036 50 345 1.0 7.0 0.00 0.00 0.00 53 1002.2
20260505004535 50 346 2.0 9.0 0.00 0.00 0.00 55 1001.9
20260505003033 51 360 7.0 15.0 0.00 0.00 0.00 52 1001.4
20260505001541 52 349 14.0 20.0 0.00 0.00 0.00 48 1001.3
20260505000033 53 349 15.0 23.0 0.00 0.00 0.00 45 1001.1
20260504234532 54 56 15.0 20.0 0.00 0.00 0.00 41 1001.1
20260504233032 54 33 4.0 10.0 0.00 0.00 0.00 43 1000.9
20260504231531 54 90 9.0 24.0 0.00 0.00 0.00 42 1001.3
20260504230030 56 123 2.0 4.0 0.00 0.00 0.00 39 1000.4
20260504224536 56 359 9.0 17.0 0.00 0.00 0.00 40 1000.3
20260504223029 59 1 4.0 9.0 0.00 0.00 0.00 33 1000.1
20260504221528 59 335 1.0 7.0 0.00 0.00 0.00 31 1000.0
20260504220027 60 51 6.0 10.0 0.00 0.00 0.00 31 1000.1
20260504214528 61 51 4.0 16.0 0.00 0.00 0.00 28 999.9
20260504213025 61 46 11.0 17.0 0.00 0.00 0.00 28 999.9
20260504211523 62 36 16.0 22.0 0.00 0.00 0.00 28 1000.0
20260504210034 62 46 10.0 15.0 0.00 0.00 0.00 28 1000.1
20260504204530 60 333 8.0 15.0 0.00 0.00 0.00 29 1000.3
20260504203025 60 330 12.0 24.0 0.00 0.00 0.00 30 1000.4
20260504201520 62 337 14.0 25.0 0.00 0.00 0.00 29 1000.4
20260504200018 62 276 9.0 19.0 0.00 0.00 0.00 23 1000.4
20260504194518 62 340 2.0 19.0 0.00 0.00 0.00 24 1000.6
20260504193017 63 161 8.0 14.0 0.00 0.00 0.00 22 1000.3
20260504191515 63 125 5.0 14.0 0.00 0.00 0.00 22 1000.7
20260504190012 62 53 7.0 10.0 0.00 0.00 0.00 24 1000.7
20260504184510 60 63 9.0 14.0 0.00 0.00 0.00 27 1001.0
20260504183009 60 63 7.0 13.0 0.00 0.00 0.00 31 1001.4
20260504181507 61 268 0.0 10.0 0.00 0.00 0.00 23 1001.6
20260504180004 62 330 2.0 7.0 0.00 0.00 0.00 26 1001.6
20260504174506 62 249 7.0 13.0 0.00 0.00 0.00 24 1001.8
20260504173110 64 178 3.0 8.0 0.00 0.00 0.00 26 1002.2
20260504171602 62 214 8.0 16.0 0.00 0.00 0.00 27 1002.5